Weather History for Gwinn, MI

Change the Weather History Date:

Saturday, January 25, 2014

  Actual Average (KESC) Record (KESC)
Temperature  
Mean Temperature 7 °F -  
Max Temperature 19 °F 25 °F 41 °F (2002)
Min Temperature -5 °F 8 °F -14 °F (1972)
Degree Days  
Heating Degree Days 58    
Moisture  
Dew Point -3 °F    
Average Humidity 72    
Maximum Humidity 90    
Minimum Humidity 56    
Precipitation  
Precipitation 0.00 in - - ()
Sea Level Pressure  
Sea Level Pressure 29.41 in    
Wind  
Wind Speed 16 mph (NW)    
Max Wind Speed 28 mph    
Max Gust Speed 38 mph    
Visibility 6 miles    
Events Snow    
Averages and records for this station are not official NWS values.
T = Trace of Precipitation, MM = Missing Value Source: NWS Daily Summary

Daily Weather History Graph

Daily Weather History Graph

Search for Another Location

Airport:

Trip Planner

Search our weather history database for the weather conditions in past years. The results will help you decide how hot, cold, wet, or windy it might be!

Date:

Astronomy

Jan. 25, 2014 Rise Set
Actual Time 8:20 AM EST 5:43 PM EST
Civil Twilight 7:47 AM EST 6:16 PM EST
Nautical Twilight 7:11 AM EST 6:53 PM EST
Astronomical Twilight 6:35 AM EST 7:28 PM EST
Moon 2:50 AM EST (1/25) 12:44 PM EST (1/25)
Length of Visible Light 10h 28m
Length of Day
9h 23m
Waning Crescent, 34% of the Moon is Illuminated
Jan 25
Waning Crescent
Jan 30
New
Feb 6
First Quarter
Feb 14
Full
Feb 22
Last Quarter

Hourly Weather History & Observations

Time (EST) Temp. Windchill Dew Point Humidity Pressure Visibility Wind Dir Wind Speed Gust Speed Precip Events Conditions
12:17 AM 19.4 °F 5.5 °F 16.9 °F 90% 29.17 in 0.8 mi NNW 15.0 mph 23.0 mph N/A Snow Snow
12:37 AM 19.2 °F 2.6 °F 15.4 °F 85% 29.19 in 0.8 mi NNW 21.9 mph 29.9 mph N/A Snow Light Snow
12:56 AM 18.1 °F 3.9 °F 10.2 °F 71% 29.21 in 3.0 mi NNW 15.0 mph 32.2 mph N/A Snow Light Snow
1:17 AM 16.0 °F -3.5 °F 6.4 °F 66% 29.22 in 2.0 mi NNW 27.6 mph 38.0 mph N/A Snow Light Snow
1:36 AM 13.8 °F -4.5 °F 4.1 °F 65% 29.23 in 2.0 mi NNW 21.9 mph 33.4 mph N/A Snow Light Snow
1:57 AM 12.6 °F -3.3 °F 4.1 °F 69% 29.23 in 7.0 mi NW 15.0 mph 24.2 mph N/A   Clear
2:17 AM 12.0 °F -2.0 °F 4.3 °F 71% 29.24 in 10.0 mi NNW 11.5 mph - N/A   Clear
2:36 AM 11.8 °F -2.3 °F 5.2 °F 75% 29.25 in 10.0 mi NNW 11.5 mph 17.3 mph N/A   Mostly Cloudy
2:57 AM 11.8 °F -5.3 °F 5.2 °F 75% 29.25 in 7.0 mi North 17.3 mph 23.0 mph N/A   Overcast
3:16 AM 11.3 °F -4.3 °F 3.7 °F 72% 29.26 in 10.0 mi NNW 13.8 mph 19.6 mph N/A   Overcast
3:37 AM 11.1 °F -8.1 °F 3.0 °F 70% 29.27 in 7.0 mi NNW 21.9 mph - N/A   Overcast
3:56 AM 9.7 °F -8.1 °F 3.2 °F 75% 29.28 in 5.0 mi NNW 17.3 mph 24.2 mph N/A   Haze
4:17 AM 8.4 °F -12.1 °F 1.8 °F 74% 29.29 in 3.0 mi NNW 23.0 mph 28.8 mph N/A   Haze
4:37 AM 7.3 °F -11.1 °F 0.3 °F 73% 29.31 in 5.0 mi NNW 17.3 mph 24.2 mph N/A   Haze
4:56 AM 6.4 °F -12.3 °F -1.3 °F 71% 29.31 in 10.0 mi NNW 17.3 mph 24.2 mph N/A   Scattered Clouds
5:17 AM 5.7 °F -11.4 °F -2.2 °F 70% 29.33 in 10.0 mi NNW 13.8 mph 23.0 mph N/A   Clear
5:37 AM 5.0 °F -13.6 °F -2.2 °F 72% 29.33 in 10.0 mi NNW 16.1 mph 23.0 mph N/A   Scattered Clouds
5:57 AM 4.6 °F -12.8 °F -3.8 °F 68% 29.33 in 10.0 mi NNW 13.8 mph 18.4 mph N/A   Scattered Clouds
6:50 AM 3.2 °F -14.6 °F -2.2 °F 78% 29.36 in 4.0 mi NNW 13.8 mph - N/A Snow Light Snow
7:50 AM 3.2 °F -15.3 °F -4.0 °F 72% 29.38 in 5.0 mi NNW 15.0 mph 21.9 mph N/A Snow Light Snow
8:50 AM 3.2 °F -16.5 °F -4.0 °F 72% 29.41 in 3.0 mi NNW 17.3 mph 26.5 mph N/A Snow Light Snow
9:50 AM 1.4 °F -15.3 °F -4.0 °F 78% 29.44 in 1.0 mi NNW 11.5 mph 18.4 mph N/A Snow Light Snow
10:50 AM 1.4 °F -20.5 °F -9.4 °F 61% 29.46 in 2.0 mi NNW 20.7 mph 36.8 mph N/A Snow Light Snow
11:50 AM 1.4 °F -18.2 °F -9.4 °F 61% 29.49 in 2.0 mi NW 16.1 mph 25.3 mph N/A Snow Light Snow
12:45 PM 1.4 °F -20.5 °F -11.2 °F 56% 29.49 in 5.0 mi NW 20.7 mph 27.6 mph N/A Snow Light Snow
1:47 PM 1.4 °F -20.5 °F -11.2 °F 56% 29.50 in 3.0 mi NW 20.7 mph 24.2 mph N/A   Haze
2:21 PM 1.4 °F -16.9 °F -9.4 °F 61% 29.51 in 1.5 mi NNW 13.8 mph 21.9 mph N/A Snow Light Snow
2:53 PM -0.4 °F -19.9 °F -11.2 °F 60% 29.51 in 3.0 mi NW 15.0 mph 25.3 mph N/A Snow Light Snow
3:53 PM -0.4 °F -20.5 °F -7.6 °F 72% 29.54 in 3.0 mi NNW 16.1 mph 21.9 mph N/A Snow Light Snow
4:54 PM -0.4 °F -21.2 °F -11.2 °F 60% 29.55 in 4.0 mi NW 17.3 mph 25.3 mph N/A Snow Light Snow
5:55 PM -2.2 °F -16.8 °F -11.2 °F 66% 29.57 in 7.0 mi WNW 8.1 mph - N/A   Mostly Cloudy
6:55 PM -5.8 °F -18.4 °F -13.0 °F 71% 29.59 in 10.0 mi West 5.8 mph - N/A   Clear
7:55 PM -5.8 °F -16.7 °F -13.0 °F 71% 29.59 in 10.0 mi WSW 4.6 mph - N/A   Overcast
8:55 PM -4.0 °F -14.6 °F -9.4 °F 78% 29.59 in 10.0 mi WSW 4.6 mph - N/A   Haze
9:45 PM -4.0 °F -16.3 °F -9.4 °F 78% 29.58 in 7.0 mi WSW 5.8 mph - N/A   Overcast
10:16 PM -3.3 °F -13.7 °F -8.5 °F 78% 29.57 in 7.0 mi WSW 4.6 mph - N/A   Overcast
10:37 PM -3.5 °F -13.9 °F -8.5 °F 79% 29.57 in 7.0 mi SW 4.6 mph - N/A   Overcast
10:57 PM -3.1 °F -15.2 °F -8.3 °F 78% 29.57 in 7.0 mi SW 5.8 mph - N/A   Overcast
11:16 PM -2.6 °F -14.6 °F -8.0 °F 78% 29.57 in 10.0 mi WSW 5.8 mph - N/A   Overcast
11:37 PM -2.2 °F -15.6 °F -7.6 °F 78% 29.58 in 10.0 mi WSW 6.9 mph - N/A   Overcast
11:56 PM -1.8 °F -15.2 °F -7.2 °F 78% 29.57 in 10.0 mi WSW 6.9 mph - N/A   Overcast